Wind_Speed
30 29 29 29 29 28 27 26 27 27 29 28 30 30 32 32 32 33 32 32 33 32 31 30 29 28 26 25 26 27 29 33 36 35 34 30 28 26 23 21 21 18 17 18 23
28 30 32 30 30 30 29 29 30 30 30 30 32 33 34 35 32 33 33 33 34 34 34 33 33 31 27 26 26 27 27 27 30 34 36 37 34 31 30 26 26 22 24 21 21
27 28 30 31 31 29 30 30 29 31 30 29 29 31 32 34 32 31 32 32 33 34 34 34 33 28 25 20 17 19 19 20 23 26 32 37 40 35 35 32 26 30 24 27 24
31 28 29 28 28 28 30 30 29 29 28 26 26 28 30 32 31 29 30 29 31 29 29 28 27 23 20 18 13 18 18 15 20 20 21 25 33 39 42 33 33 32 31 30 29
30 30 30 29 30 28 29 28 27 27 28 27 27 28 30 33 30 30 31 30 29 26 21 20 23 19 20 19 18 20 24 21 20 20 19 19 21 25 39 32 34 37 36 33 33
35 34 32 31 32 32 31 30 29 29 30 31 30 30 32 37 33 32 31 29 29 28 25 22 23 22 26 26 23 25 24 26 28 25 21 17 26 26 29 26 30 36 40 40 38
36 37 38 37 37 35 34 32 33 33 32 28 30 29 32 40 38 34 32 34 34 34 32 29 29 29 29 28 26 24 21 24 32 30 24 20 32 33 28 26 32 33 36 40 43
41 41 41 41 39 40 41 36 35 34 30 30 28 26 30 39 38 37 35 36 36 36 36 36 35 34 36 36 36 31 26 28 38 32 26 20 27 40 31 28 32 33 37 36 41
47 47 47 45 45 44 44 41 39 38 37 34 27 28 32 40 41 39 39 37 36 39 36 37 35 37 43 45 38 40 32 30 36 40 32 24 23 41 40 31 32 33 33 34 34
45 49 50 51 49 50 49 50 46 43 42 39 37 35 35 39 43 44 46 45 43 42 40 39 36 37 48 46 38 41 38 37 35 47 36 30 25 33 45 39 38 38 36 33 28
59 56 53 51 48 51 54 53 52 52 49 47 44 43 43 43 45 50 51 49 46 45 47 42 42 44 53 46 39 37 37 37 43 48 42 36 30 31 40 46 49 46 46 41 36
58 62 56 56 58 55 57 53 53 50 46 51 49 46 53 53 50 59 59 54 53 54 55 49 45 54 55 52 48 45 42 38 38 47 43 38 31 34 39 47 52 51 51 45 40
67 58 65 64 65 66 67 60 61 56 47 50 52 54 51 56 54 60 61 60 58 56 59 55 51 58 59 56 55 51 52 49 43 45 42 41 30 39 40 41 51 57 54 49 45
64 68 72 68 69 74 64 66 66 59 49 45 57 62 63 60 51 59 64 63 61 62 62 56 63 61 59 60 69 54 65 57 53 50 41 45 26 40 46 44 44 54 58 61 57
81 76 69 71 74 69 72 82 72 79 46 60 48 56 60 65 68 65 67 58 58 65 72 66 62 64 62 68 70 65 71 69 64 57 50 46 44 34 46 50 49 52 55 61 62
81 74 79 81 76 81 82 77 80 76 67 64 72 66 70 65 74 74 63 68 68 67 67 58 65 71 73 68 73 80 82 75 70 70 48 55 59 33 49 52 53 52 54 54 60
84 84 79 87 91 86 85 88 91 81 82 83 79 83 68 74 74 75 82 70 78 80 72 83 79 73 80 86 83 86 86 86 74 74 78 75 71 51 56 58 60 61 61 59 59
89 90 90 88 94 93 93 93 98 89 87 95 93 87 89 88 84 81 79 81 82 85 88 82 74 84 81 85 89 92 87 92 101 88 74 84 74 62 65 65 60 56 60 68 68
97 96 93 97 95 97 103 97 96 90 94 99 94 95 95 95 93 94 95 89 88 94 94 100 87 87 87 93 91 93 93 100 107 102 101 86 83 77 78 72 71 72 79 77 77
108 104 100 102 102 106 108 103 97 96 101 106 108 102 98 103 105 104 105 102 99 102 106 108 116 97 99 99 97 103 103 102 109 116 111 101 105 99 88 84 86 89 81 91 79
117 115 111 113 114 118 114 108 110 112 108 115 113 116 112 112 114 116 116 109 111 111 115 121 125 109 106 104 110 113 121 121 121 121 124 123 115 101 103 99 98 96 98 98 94
123 122 120 120 121 118 125 117 116 115 120 121 125 121 120 117 123 127 128 119 113 121 126 125 130 132 118 121 118 122 136 140 137 134 132 136 136 110 104 107 108 100 101 113 103
129 126 130 130 131 125 122 122 120 127 125 135 133 127 126 130 131 127 130 128 128 126 126 131 137 138 140 134 128 149 148 151 147 154 152 149 146 126 120 112 106 109 108 112 109
140 138 137 146 143 138 135 136 141 131 127 140 146 144 141 140 135 137 138 136 137 136 134 133 133 138 148 148 144 158 155 149 143 151 154 156 148 130 110 101 97 100 103 105 109
158 157 155 152 157 154 153 149 146 142 142 150 155 157 151 149 145 146 151 144 146 144 143 147 153 153 154 159 166 163 150 148 146 140 144 139 140 130 117 104 106 106 97 104 110
173 176 176 172 175 174 169 169 171 164 165 164 166 157 159 159 155 151 152 164 158 154 159 160 163 156 155 149 131 128 126 122 119 113 126 134 136 126 121 117 115 115 105 112 117
171 160 158 157 158 158 144 154 152 162 165 170 164 167 164 164 165 163 170 172 167 155 150 146 135 134 130 126 127 123 106 102 104 110 112 114 112 121 122 122 119 119 114 112 111
Wind_Direction
270 268 266 263 267 267 264 265 266 266 268 273 277 282 287 289 285 283 283 285 288 289 292 294 294 294 288 283 285 282 273 266 264 265 265 261 257 251 252 258 266 264 257 254 257
270 269 269 268 267 269 270 268 266 267 269 271 274 280 281 283 285 286 283 286 290 292 294 296 296 296 293 291 293 290 283 280 272 267 266 266 262 255 251 247 258 256 263 259 251
269 271 272 272 274 276 274 274 276 274 272 276 283 287 288 289 290 292 294 293 294 295 297 298 300 302 302 311 313 306 294 291 283 276 268 265 265 260 254 243 242 259 253 260 257
265 270 273 274 272 273 273 273 276 275 281 284 287 293 295 293 294 300 300 302 301 302 301 299 301 308 312 314 325 323 318 311 306 293 283 275 268 264 260 257 239 247 256 251 256
264 265 265 268 270 271 271 271 273 274 280 281 284 287 291 291 292 292 295 299 303 304 298 295 297 300 302 304 312 314 315 313 310 302 308 293 290 280 266 268 257 249 252 250 249
263 263 264 267 268 268 267 269 268 267 268 272 275 279 282 282 284 285 288 290 293 293 291 287 284 288 290 298 297 291 302 304 301 298 301 309 305 283 285 272 266 256 251 249 250
269 269 266 264 267 269 270 269 271 271 272 273 275 280 284 282 285 286 290 285 284 284 282 282 281 286 284 284 286 285 288 296 291 294 296 301 300 288 289 291 281 267 257 248 249
270 269 268 267 268 266 267 266 266 269 269 272 278 281 282 282 283 285 286 286 286 287 284 285 285 284 288 282 280 281 280 288 291 284 287 291 294 289 285 289 282 280 270 260 252
280 280 275 268 269 269 268 265 266 271 271 273 277 283 276 279 282 282 282 282 283 283 284 283 286 287 286 280 281 280 281 277 286 286 281 285 284 296 287 281 281 279 276 273 270
280 285 280 280 276 271 271 268 268 267 272 270 274 275 277 278 280 285 283 279 277 280 279 280 289 288 280 281 283 279 276 276 274 282 281 277 273 288 295 293 285 282 280 274 276
269 278 279 275 278 279 273 271 273 271 276 275 273 277 275 277 279 279 278 282 281 282 278 285 292 286 279 287 282 283 283 275 269 274 276 277 272 278 287 288 287 284 284 282 276
273 266 275 277 275 279 283 276 277 273 274 274 275 275 275 274 275 279 277 276 278 283 288 284 295 284 286 284 282 283 278 277 274 277 277 271 272 274 276 281 285 286 284 282 279
264 274 262 273 272 273 277 277 280 279 271 279 280 283 282 277 273 273 274 275 280 281 279 288 292 282 282 287 284 282 282 273 273 275 284 274 276 275 275 273 281 285 283 281 279
269 268 263 272 272 268 278 279 273 277 273 280 278 283 277 276 279 276 276 278 280 278 281 287 284 289 291 291 284 290 281 280 277 276 274 278 267 271 269 272 273 278 283 282 282
261 265 264 274 268 265 270 273 274 267 283 270 280 276 283 281 274 284 274 275 275 277 278 280 277 282 288 284 286 291 290 287 286 283 279 279 272 257 274 278 276 275 274 281 282
265 265 262 263 281 269 270 273 286 265 293 296 273 288 273 281 278 274 279 270 277 284 279 283 284 282 277 283 290 284 281 289 286 279 284 285 278 274 266 271 272 273 276 274 276
264 264 267 266 271 273 273 269 278 292 285 289 287 284 283 287 280 272 273 279 273 273 283 280 280 287 284 276 283 288 282 283 288 281 278 276 286 285 284 264 263 269 272 274 275
266 269 266 270 271 270 274 273 289 294 279 279 291 281 291 292 290 283 280 280 268 274 276 285 278 280 281 281 278 281 281 285 284 286 281 274 286 287 286 284 276 263 270 271 271
271 272 268 270 271 272 270 277 286 282 278 274 278 288 287 285 284 285 286 288 281 282 283 277 286 276 276 277 279 280 282 279 282 284 285 290 286 289 287 280 280 280 271 273 272
272 272 271 271 271 271 273 278 278 277 277 275 280 280 280 282 281 285 288 287 286 285 285 281 284 286 283 275 281 279 278 280 282 284 281 282 288 293 285 283 284 279 278 275 273
273 271 273 271 269 272 274 276 272 276 273 275 279 279 281 281 280 282 286 288 285 285 283 285 284 286 278 279 282 283 286 289 286 286 285 284 282 285 287 285 280 275 279 283 279
270 272 273 272 274 274 276 277 278 277 278 278 278 277 278 278 280 281 285 286 281 280 284 285 284 284 282 284 282 283 287 287 283 284 284 284 284 285 279 278 280 277 271 279 275
266 267 268 270 273 273 271 270 270 276 277 278 278 277 276 278 279 278 281 282 280 280 281 282 284 284 286 287 284 287 288 288 287 287 286 285 285 283 283 283 276 268 270 278 276
264 266 265 269 271 273 270 269 270 271 273 275 276 276 276 276 276 276 277 278 277 281 281 277 276 278 282 285 282 283 283 283 283 283 286 284 286 285 282 281 278 272 273 273 271
266 266 264 266 267 269 269 268 268 268 268 272 276 275 274 275 274 275 277 274 275 276 275 273 277 278 276 276 279 280 278 278 278 276 276 281 282 279 276 273 271 270 265 263 267
269 270 270 269 270 271 269 269 270 268 268 269 271 270 269 271 273 274 271 275 275 275 275 275 279 279 280 278 276 276 272 273 276 272 270 272 274 276 273 267 265 271 268 269 268
271 272 272 272 271 272 271 271 269 269 267 267 269 269 269 270 272 274 274 276 277 279 277 277 277 277 277 276 277 275 275 271 274 271 269 270 273 269 271 271 270 268 262 267 271
Height
10831 10831 10831 10831 10831 10831 10831 10831 10831 10831 10830 10830 10829 10829 10827 10826 10826 10825 10824 10823 10821 10820 10818 10817 10816 10815 10813 10812 10811 10809 10809 10808 10807 10807 10807 10806 10805 10805 10804 10803 10801 10799 10799 10800 10799
10825 10825 10825 10825 10826 10826 10826 10826 10826 10825 10825 10825 10824 10823 10821 10820 10820 10819 10819 10817 10815 10814 10813 10812 10810 10809 10808 10808 10806 10805 10804 10802 10802 10800 10799 10799 10799 10799 10798 10798 10797 10796 10794 10794 10795
10818 10819 10819 10820 10820 10820 10820 10820 10820 10819 10819 10819 10818 10817 10814 10813 10813 10813 10811 10811 10809 10808 10807 10806 10803 10802 10802 10802 10802 10800 10799 10797 10795 10794 10792 10792 10790 10793 10791 10791 10793 10790 10791 10789 10789
10813 10812 10813 10814 10814 10815 10815 10814 10813 10814 10815 10814 10813 10811 10809 10806 10806 10805 10804 10804 10803 10802 10801 10800 10798 10797 10796 10796 10796 10794 10793 10792 10790 10788 10788 10786 10784 10785 10781 10783 10786 10784 10784 10784 10783
10806 10806 10807 10807 10808 10807 10808 10809 10809 10809 10809 10809 10809 10807 10804 10799 10801 10800 10799 10798 10797 10796 10796 10795 10794 10793 10791 10792 10791 10790 10787 10787 10785 10783 10783 10782 10780 10777 10768 10776 10778 10779 10777 10777 10776
10798 10800 10800 10800 10800 10800 10801 10803 10803 10803 10803 10803 10803 10803 10800 10792 10795 10795 10794 10793 10791 10790 10790 10790 10788 10788 10786 10786 10786 10784 10782 10780 10778 10778 10779 10778 10771 10767 10765 10770 10767 10769 10768 10769 10769
10791 10792 10793 10792 10792 10793 10793 10795 10795 10796 10797 10797 10797 10797 10794 10786 10786 10788 10788 10787 10785 10785 10783 10783 10782 10782 10781 10779 10777 10777 10778 10775 10768 10771 10773 10774 10762 10759 10763 10763 10758 10757 10757 10760 10760
10783 10784 10784 10785 10784 10784 10785 10787 10787 10788 10790 10791 10792 10791 10787 10780 10779 10778 10778 10776 10777 10775 10776 10775 10775 10775 10772 10770 10770 10770 10772 10770 10757 10763 10767 10769 10760 10749 10757 10756 10751 10748 10749 10750 10750
10773 10775 10775 10776 10776 10775 10776 10778 10779 10780 10781 10783 10785 10785 10781 10774 10770 10770 10768 10766 10767 10764 10764 10764 10766 10766 10761 10758 10766 10762 10768 10765 10757 10751 10759 10761 10757 10740 10744 10749 10743 10741 10741 10741 10743
10763 10764 10765 10765 10766 10766 10767 10769 10771 10771 10771 10773 10776 10775 10773 10769 10762 10758 10756 10756 10756 10755 10754 10754 10758 10756 10743 10748 10758 10753 10757 10756 10753 10738 10750 10755 10753 10743 10732 10737 10736 10732 10732 10732 10734
10753 10753 10754 10754 10754 10754 10755 10758 10759 10763 10763 10763 10767 10765 10763 10761 10758 10748 10742 10745 10745 10746 10744 10749 10751 10744 10730 10739 10741 10742 10744 10745 10742 10734 10741 10744 10748 10743 10730 10722 10722 10724 10723 10723 10725
10739 10741 10741 10742 10741 10742 10742 10744 10746 10751 10757 10755 10753 10757 10750 10748 10750 10737 10733 10732 10733 10736 10733 10737 10744 10730 10728 10726 10730 10731 10730 10732 10733 10725 10731 10735 10739 10736 10726 10715 10706 10714 10709 10713 10715
10728 10726 10727 10729 10729 10730 10730 10731 10731 10736 10746 10744 10739 10743 10735 10734 10736 10727 10722 10724 10725 10724 10716 10726 10726 10717 10716 10717 10713 10717 10716 10716 10720 10715 10719 10724 10737 10724 10714 10712 10703 10695 10701 10701 10702
10712 10713 10712 10715 10714 10716 10714 10714 10716 10718 10731 10733 10729 10723 10719 10720 10722 10716 10709 10709 10714 10711 10705 10717 10707 10706 10707 10708 10690 10715 10691 10701 10704 10703 10710 10706 10725 10719 10705 10703 10697 10691 10687 10686 10689
10693 10695 10695 10694 10697 10695 10696 10697 10700 10701 10719 10717 10719 10713 10703 10702 10704 10701 10695 10694 10695 10691 10693 10703 10695 10692 10692 10688 10682 10698 10682 10682 10687 10690 10696 10698 10696 10715 10700 10694 10689 10681 10680 10673 10670
10673 10677 10678 10674 10674 10675 10677 10677 10678 10683 10699 10694 10697 10698 10694 10687 10685 10683 10681 10679 10675 10676 10680 10681 10678 10682 10677 10670 10665 10668 10666 10662 10665 10671 10685 10677 10675 10712 10690 10687 10678 10674 10667 10668 10657
10651 10654 10658 10659 10654 10648 10650 10655 10655 10669 10674 10670 10671 10668 10672 10671 10667 10665 10665 10663 10659 10655 10659 10662 10668 10664 10656 10652 10647 10640 10643 10641 10643 10646 10663 10658 10664 10679 10673 10669 10667 10662 10657 10653 10651
10626 10631 10634 10638 10633 10624 10620 10626 10640 10651 10646 10638 10639 10642 10644 10642 10641 10640 10644 10645 10641 10637 10640 10640 10654 10642 10640 10627 10628 10626 10618 10616 10598 10619 10634 10636 10654 10661 10652 10652 10648 10650 10647 10643 10638
10601 10606 10613 10609 10606 10601 10594 10606 10624 10624 10618 10608 10609 10616 10623 10617 10607 10611 10615 10624 10621 10612 10606 10605 10630 10622 10619 10607 10603 10607 10601 10591 10570 10582 10589 10621 10630 10637 10633 10632 10636 10633 10628 10624 10623
10573 10580 10589 10582 10580 10573 10570 10592 10596 10598 10589 10580 10582 10587 10599 10592 10584 10582 10585 10601 10594 10592 10580 10574 10564 10608 10589 10582 10588 10570 10567 10569 10559 10543 10547 10574 10593 10612 10612 10610 10609 10602 10601 10598 10597
10544 10547 10562 10553 10549 10546 10556 10573 10572 10573 10568 10557 10559 10550 10567 10565 10555 10555 10558 10574 10568 10564 10551 10542 10535 10574 10560 10561 10551 10546 10541 10543 10534 10523 10518 10519 10545 10586 10586 10586 10576 10569 10568 10567 10566
10517 10521 10526 10517 10516 10522 10528 10534 10532 10538 10534 10528 10523 10530 10530 10535 10528 10527 10524 10541 10549 10530 10519 10515 10497 10494 10522 10523 10522 10516 10517 10509 10494 10501 10492 10483 10482 10557 10552 10548 10545 10545 10536 10529 10530
10494 10497 10498 10494 10497 10504 10499 10500 10504 10511 10507 10494 10491 10498 10497 10500 10493 10502 10499 10506 10506 10499 10495 10488 10465 10458 10465 10492 10505 10473 10473 10462 10458 10449 10453 10454 10461 10491 10490 10506 10513 10502 10505 10492 10482
10471 10469 10470 10463 10473 10472 10474 10475 10470 10484 10480 10471 10462 10462 10464 10465 10467 10462 10473 10470 10472 10466 10463 10452 10443 10440 10439 10450 10461 10447 10447 10441 10428 10412 10413 10404 10416 10442 10448 10454 10464 10454 10455 10454 10450
10435 10439 10437 10442 10447 10442 10440 10444 10450 10448 10445 10446 10434 10433 10428 10421 10428 10424 10419 10433 10447 10444 10438 10416 10410 10414 10423 10422 10412 10408 10407 10404 10393 10398 10381 10387 10376 10388 10408 10427 10421 10415 10419 10413 10416
10390 10389 10391 10400 10402 10401 10409 10409 10402 10415 10403 10410 10406 10406 10398 10393 10384 10386 10386 10381 10401 10411 10391 10382 10375 10377 10369 10370 10373 10358 10360 10374 10373 10372 10356 10346 10337 10363 10363 10367 10376 10390 10388 10371 10358
10341 10335 10333 10355 10353 10349 10359 10350 10355 10355 10367 10360 10361 10357 10359 10359 10355 10345 10342 10345 10348 10343 10356 10346 10337 10336 10328 10329 10317 10308 10342 10343 10339 10333 10327 10320 10318 10303 10313 10323 10337 10351 10355 10352 10342